| time (UTC) | temp F | wind direction | speed MPH | gust MPH | rain 1hr in | rain 24hr in | rain mn in | humidity % | barometer mb |
| 20260906000018 | 60 | 279 | 0.0 | 0.0 | 0.00 | 0.02 | 0.02 | 83 | 1016.1 |
| 20260905234513 | 61 | 279 | 0.0 | 0.0 | 0.00 | 0.02 | 0.02 | 81 | 1015.9 |
| 20260905233017 | 62 | 279 | 0.0 | 1.0 | 0.00 | 0.02 | 0.02 | 79 | 1015.9 |
| 20260905231513 | 63 | 279 | 0.0 | 1.0 | 0.00 | 0.02 | 0.02 | 76 | 1015.8 |
| 20260905230011 | 64 | 28 | 0.0 | 1.0 | 0.00 | 0.02 | 0.02 | 74 | 1015.5 |
| 20260905224512 | 65 | 25 | 0.0 | 1.0 | 0.00 | 0.02 | 0.02 | 72 | 1015.6 |
| 20260905223009 | 66 | 333 | 0.0 | 1.0 | 0.00 | 0.02 | 0.02 | 71 | 1015.5 |
| 20260905221507 | 66 | 348 | 0.0 | 3.0 | 0.00 | 0.02 | 0.02 | 70 | 1015.2 |
| 20260905220005 | 67 | 360 | 1.0 | 4.0 | 0.00 | 0.02 | 0.02 | 67 | 1015.0 |
| 20260905214503 | 66 | 11 | 0.0 | 4.0 | 0.00 | 0.02 | 0.02 | 65 | 1014.6 |
| 20260905213004 | 67 | 9 | 0.0 | 1.0 | 0.00 | 0.02 | 0.02 | 65 | 1014.5 |
| 20260905211501 | 68 | 328 | 0.0 | 4.0 | 0.00 | 0.02 | 0.02 | 63 | 1014.3 |
| 20260905210108 | 68 | 204 | 0.0 | 5.0 | 0.00 | 0.02 | 0.02 | 60 | 1014.3 |
| 20260905204601 | 68 | 27 | 0.0 | 2.0 | 0.00 | 0.02 | 0.02 | 66 | 1014.3 |
| 20260905203100 | 69 | 87 | 0.0 | 4.0 | 0.00 | 0.02 | 0.02 | 66 | 1014.1 |
| 20260905201559 | 69 | 79 | 0.0 | 6.0 | 0.00 | 0.02 | 0.02 | 66 | 1014.1 |
| 20260905200124 | 70 | 321 | 1.0 | 9.0 | 0.00 | 0.02 | 0.02 | 63 | 1014.0 |
| 20260905194556 | 69 | 114 | 0.0 | 2.0 | 0.00 | 0.02 | 0.02 | 67 | 1014.0 |
| 20260905193055 | 70 | 78 | 1.0 | 9.0 | 0.00 | 0.02 | 0.02 | 64 | 1014.0 |
| 20260905191555 | 70 | 122 | 1.0 | 6.0 | 0.00 | 0.02 | 0.02 | 62 | 1013.7 |
| 20260905190056 | 71 | 330 | 2.0 | 4.0 | 0.00 | 0.02 | 0.02 | 64 | 1013.8 |
| 20260905184552 | 70 | 323 | 0.0 | 4.0 | 0.00 | 0.02 | 0.02 | 67 | 1013.9 |
| 20260905183051 | 70 | 30 | 0.0 | 3.0 | 0.00 | 0.02 | 0.02 | 67 | 1013.8 |
| 20260905181551 | 70 | 41 | 0.0 | 3.0 | 0.00 | 0.02 | 0.02 | 68 | 1013.9 |
| 20260905180109 | 69 | 143 | 2.0 | 7.0 | 0.00 | 0.02 | 0.02 | 68 | 1014.0 |
| 20260905174545 | 68 | 62 | 1.0 | 7.0 | 0.00 | 0.02 | 0.02 | 71 | 1014.3 |
| 20260905173101 | 66 | 96 | 1.0 | 5.0 | 0.00 | 0.02 | 0.02 | 75 | 1014.3 |
| 20260905171551 | 66 | 68 | 0.0 | 3.0 | 0.00 | 0.02 | 0.02 | 77 | 1014.1 |
| 20260905170040 | 66 | 128 | 0.0 | 3.0 | 0.00 | 0.02 | 0.02 | 78 | 1014.3 |
| 20260905164543 | 65 | 64 | 0.0 | 2.0 | 0.00 | 0.02 | 0.02 | 79 | 1014.4 |
| 20260905163038 | 65 | 64 | 0.0 | 4.0 | 0.00 | 0.02 | 0.02 | 80 | 1014.4 |
| 20260905161536 | 65 | 64 | 1.0 | 3.0 | 0.00 | 0.02 | 0.02 | 81 | 1014.3 |
| 20260905160050 | 66 | 2 | 1.0 | 5.0 | 0.00 | 0.02 | 0.02 | 83 | 1014.2 |
| 20260905154538 | 65 | 44 | 2.0 | 7.0 | 0.01 | 0.02 | 0.02 | 83 | 1014.1 |
| 20260905153035 | 65 | 15 | 1.0 | 4.0 | 0.02 | 0.02 | 0.02 | 86 | 1014.1 |
| 20260905151532 | 64 | 40 | 0.0 | 3.0 | 0.02 | 0.02 | 0.02 | 91 | 1014.2 |
| 20260905150030 | 64 | 262 | 0.0 | 3.0 | 0.02 | 0.02 | 0.02 | 93 | 1014.0 |
| 20260905144530 | 64 | 98 | 0.0 | 4.0 | 0.01 | 0.01 | 0.01 | 89 | 1014.0 |
| 20260905143029 | 66 | 10 | 0.0 | 3.0 | 0.00 | 0.00 | 0.00 | 82 | 1013.7 |
| 20260905141525 | 65 | 338 | 0.0 | 3.0 | 0.00 | 0.00 | 0.00 | 84 | 1013.6 |
| 20260905140023 | 65 | 117 | 0.0 | 1.0 | 0.00 | 0.00 | 0.00 | 85 | 1013.5 |
| 20260905134520 | 64 | 50 | 1.0 | 2.0 | 0.00 | 0.00 | 0.00 | 85 | 1013.4 |
| 20260905133024 | 64 | 350 | 1.0 | 3.0 | 0.00 | 0.00 | 0.00 | 86 | 1013.4 |
| 20260905131516 | 63 | 91 | 1.0 | 3.0 | 0.00 | 0.00 | 0.00 | 88 | 1013.2 |
| 20260905130014 | 63 | 27 | 0.0 | 7.0 | 0.00 | 0.00 | 0.00 | 89 | 1013.1 |
| 20260905124513 | 62 | 37 | 0.0 | 2.0 | 0.00 | 0.00 | 0.00 | 90 | 1013.1 |
| 20260905123010 | 62 | 337 | 0.0 | 3.0 | 0.00 | 0.00 | 0.00 | 91 | 1012.9 |
| 20260905121509 | 61 | 44 | 0.0 | 1.0 | 0.00 | 0.00 | 0.00 | 92 | 1012.9 |
| 20260905120021 | 61 | 112 | 0.0 | 1.0 | 0.00 | 0.00 | 0.00 | 91 | 1012.8 |
| 20260905114507 | 61 | 239 | 0.0 | 1.0 | 0.00 | 0.00 | 0.00 | 92 | 1012.6 |
| 20260905113005 | 61 | 275 | 0.0 | 2.0 | 0.00 | 0.00 | 0.00 | 92 | 1012.7 |
| 20260905111504 | 60 | 292 | 0.0 | 2.0 | 0.00 | 0.00 | 0.00 | 94 | 1012.6 |
| 20260905110007 | 60 | 160 | 0.0 | 1.0 | 0.00 | 0.00 | 0.00 | 95 | 1012.4 |
| 20260905104559 | 60 | 358 | 0.0 | 1.0 | 0.00 | 0.00 | 0.00 | 96 | 1012.0 |
| 20260905103103 | 59 | 358 | 0.0 | 1.0 | 0.00 | 0.00 | 0.00 | 96 | 1012.1 |
| 20260905101559 | 59 | 358 | 0.0 | 1.0 | 0.00 | 0.00 | 0.00 | 96 | 1011.9 |
| 20260905100101 | 59 | 26 | 0.0 | 4.0 | 0.00 | 0.00 | 0.00 | 96 | 1011.9 |
| 20260905094555 | 59 | 208 | 0.0 | 1.0 | 0.00 | 0.00 | 0.00 | 97 | 1011.7 |
| 20260905093110 | 58 | 271 | 0.0 | 1.0 | 0.00 | 0.00 | 0.00 | 97 | 1011.6 |
| 20260905091556 | 58 | 271 | 0.0 | 1.0 | 0.00 | 0.00 | 0.00 | 97 | 1011.6 |
| 20260905090053 | 57 | 28 | 0.0 | 1.0 | 0.00 | 0.00 | 0.00 | 97 | 1011.6 |
| 20260905084553 | 57 | 28 | 0.0 | 1.0 | 0.00 | 0.00 | 0.00 | 96 | 1011.5 |
| 20260905083049 | 58 | 28 | 0.0 | 0.0 | 0.00 | 0.00 | 0.00 | 96 | 1011.4 |
| 20260905081548 | 58 | 28 | 0.0 | 0.0 | 0.00 | 0.00 | 0.00 | 97 | 1011.3 |
| 20260905080048 | 58 | 28 | 0.0 | 1.0 | 0.00 | 0.00 | 0.00 | 97 | 1011.1 |
| 20260905074546 | 58 | 28 | 0.0 | 0.0 | 0.00 | 0.00 | 0.00 | 96 | 1010.9 |
| 20260905073046 | 58 | 28 | 0.0 | 0.0 | 0.00 | 0.00 | 0.00 | 96 | 1011.0 |
| 20260905071547 | 58 | 28 | 0.0 | 1.0 | 0.00 | 0.00 | 0.00 | 96 | 1010.9 |
| 20260905070052 | 58 | 28 | 0.0 | 0.0 | 0.00 | 0.00 | 0.00 | 96 | 1010.9 |
| 20260905064549 | 58 | 28 | 0.0 | 0.0 | 0.00 | 0.00 | 0.00 | 95 | 1010.9 |
| 20260905063041 | 59 | 28 | 0.0 | 0.0 | 0.00 | 0.00 | 0.00 | 94 | 1010.9 |
| 20260905061538 | 59 | 28 | 0.0 | 0.0 | 0.00 | 0.00 | 0.00 | 94 | 1010.9 |
| 20260905060040 | 60 | 28 | 0.0 | 1.0 | 0.00 | 0.00 | 0.00 | 94 | 1011.0 |
| 20260905054545 | 60 | 28 | 0.0 | 0.0 | 0.00 | 0.00 | 0.00 | 93 | 1011.1 |
| 20260905053036 | 60 | 28 | 0.0 | 0.0 | 0.00 | 0.00 | 0.00 | 93 | 1011.1 |
| 20260905051541 | 61 | 28 | 0.0 | 1.0 | 0.00 | 0.00 | 0.00 | 92 | 1011.1 |
| 20260905050032 | 61 | 28 | 0.0 | 1.0 | 0.00 | 0.00 | 0.00 | 93 | 1011.3 |
| 20260905044530 | 61 | 28 | 0.0 | 1.0 | 0.00 | 0.00 | 0.00 | 92 | 1011.1 |
| 20260905043033 | 61 | 28 | 0.0 | 1.0 | 0.00 | 0.00 | 0.00 | 91 | 1011.2 |
| 20260905041527 | 62 | 28 | 0.0 | 1.0 | 0.00 | 0.00 | 0.00 | 91 | 1011.2 |
| 20260905040027 | 62 | 53 | 0.0 | 1.0 | 0.00 | 0.00 | 0.00 | 90 | 1011.1 |
| 20260905034529 | 62 | 53 | 0.0 | 0.0 | 0.00 | 0.00 | 0.00 | 90 | 1011.1 |
| 20260905033027 | 62 | 53 | 0.0 | 1.0 | 0.00 | 0.00 | 0.00 | 90 | 1011.3 |
| 20260905031523 | 62 | 53 | 0.0 | 0.0 | 0.00 | 0.00 | 0.00 | 90 | 1011.2 |
| 20260905030023 | 63 | 53 | 0.0 | 0.0 | 0.00 | 0.00 | 0.00 | 89 | 1011.3 |
| 20260905024524 | 63 | 53 | 0.0 | 1.0 | 0.00 | 0.00 | 0.00 | 88 | 1011.3 |
| 20260905023021 | 63 | 53 | 0.0 | 0.0 | 0.00 | 0.00 | 0.00 | 88 | 1011.3 |
| 20260905021534 | 64 | 53 | 0.0 | 0.0 | 0.00 | 0.00 | 0.00 | 86 | 1011.4 |
| 20260905020026 | 64 | 53 | 0.0 | 1.0 | 0.00 | 0.00 | 0.00 | 86 | 1011.5 |
| 20260905014520 | 64 | 53 | 0.0 | 1.0 | 0.00 | 0.00 | 0.00 | 85 | 1011.6 |
| 20260905013024 | 65 | 53 | 0.0 | 1.0 | 0.00 | 0.00 | 0.00 | 84 | 1011.7 |
| 20260905011519 | 65 | 53 | 0.0 | 1.0 | 0.00 | 0.00 | 0.00 | 84 | 1011.6 |
| 20260905010023 | 66 | 53 | 0.0 | 1.0 | 0.00 | 0.00 | 0.00 | 83 | 1011.4 |
| 20260905004521 | 66 | 53 | 0.0 | 1.0 | 0.00 | 0.00 | 0.00 | 83 | 1011.5 |
| 20260905003028 | 66 | 53 | 0.0 | 1.0 | 0.00 | 0.00 | 0.00 | 83 | 1011.4 |
| 20260905001518 | 67 | 53 | 0.0 | 1.0 | 0.00 | 0.00 | 0.00 | 81 | 1011.4 |